Home   Weather   Amsterdam   Past weeks
Flag for Netherlands

Past Weather in Amsterdam, Netherlands — Yesterday and Last 2 Weeks

Now
64 °F

Passing clouds.


Feels Like: 64 °F
Forecast: 62 / 47 °F
Wind: 14 mph from Northwest

Location: Amsterdam Schiphol Airport

Current Time: May 24, 2019 at 3:10:34 pm

Latest Report: May 24, 2019 at 2:25 pm


Visibility: N/A

Pressure: 29.98 "Hg

Humidity: 52%

Dew Point: 46 °F

Location of AmsterdamLocation

Past Weather in Amsterdam — Graph

°F

Amsterdam Temperature Yesterday

Maximum temperature yesterday: 68 °F (at 11:55 am)
Minimum temperature yesterday: 46 °F (at 1:55 am)
Average temperature yesterday: 59 °F

High & Low Weather Summary for the Past Weeks

 TemperatureHumidityPressure
High68 °F (May 18, 1:55 pm)100% (May 9, 11:25 pm)30.74 "Hg (May 9, 11:25 pm)
Low39 °F (May 12, 4:25 am)32% (May 23, 3:25 pm)29.42 "Hg (May 9, 1:25 pm)
Average54 °F73%30.06 "Hg
* Reported May 9 1:25 pm — May 24 1:55 pm, Amsterdam. Weather by CustomWeather, © 2019

Note: Actual official high and low records may vary slightly from our data, if they occured in-between our weather recording intervals... More about our weather records

Advertising

Amsterdam Weather History for the Previous 24 Hours

Scroll right to see more
 ConditionsComfort  
Time TempWeatherWind HumidityBarometerVisibility
1:55 pm
Fri, May 24
66 °FPassing clouds.14 mph49%29.98 "HgN/A
1:25 pm68 °FPassing clouds.14 mph46%29.98 "HgN/A
12:55 pm68 °FPassing clouds.10 mph53%29.98 "HgN/A
12:25 pm66 °FPassing clouds.9 mph52%29.98 "HgN/A
11:55 am66 °FPassing clouds.7 mph60%29.95 "HgN/A
11:25 am64 °FPassing clouds.7 mph64%29.95 "HgN/A
10:55 am63 °FPassing clouds.7 mph73%29.95 "HgN/A
10:25 am63 °FPassing clouds.9 mph73%29.95 "HgN/A
9:55 am63 °FPassing clouds.9 mph68%29.95 "HgN/A
9:25 am61 °FPassing clouds.9 mph72%29.95 "HgN/A
8:55 am61 °FSunny.12 mph68%29.95 "Hg10 mi
7:55 am59 °FPassing clouds.10 mph63%29.95 "HgN/A
7:25 am59 °FPassing clouds.12 mph63%29.95 "HgN/A
6:55 am57 °FSunny.10 mph72%29.95 "Hg10 mi
6:25 am55 °FSunny.9 mph77%29.95 "Hg10 mi
5:55 am52 °FSunny.8 mph88%29.95 "Hg10 mi
5:25 am54 °FClear.8 mph82%29.95 "Hg10 mi
4:55 am52 °FClear.6 mph82%29.95 "Hg10 mi
4:25 am52 °FClear.5 mph82%29.95 "Hg10 mi
3:55 am48 °FClear.2 mph87%29.95 "Hg10 mi
3:25 am52 °FClear.2 mph88%29.95 "Hg10 mi
2:55 am52 °FClear.1 mph88%29.95 "Hg10 mi
2:25 am52 °FClear.2 mph88%29.98 "Hg10 mi
1:55 am54 °FClear.2 mph82%29.98 "Hg10 mi
1:25 am50 °FClear.3 mph88%29.98 "Hg10 mi
12:55 am52 °FClear.3 mph88%29.98 "Hg10 mi
12:25 am55 °FClear.2 mph77%29.98 "Hg10 mi
11:55 pm
Thu, May 23
54 °FClear.1 mph82%29.98 "Hg10 mi
11:25 pm55 °FClear.2 mph77%29.98 "Hg10 mi
10:55 pm55 °FClear.2 mph77%29.98 "Hg10 mi
10:25 pm57 °FClear.1 mph67%29.98 "Hg10 mi
9:55 pm61 °FClear.2 mph59%30.01 "Hg10 mi
9:25 pm61 °FSunny.3 mph59%29.98 "Hg10 mi
8:55 pm63 °FSunny.No wind52%29.98 "Hg10 mi
8:25 pm63 °FPassing clouds.3 mph56%30.01 "HgN/A
7:55 pm64 °FPassing clouds.6 mph46%30.01 "HgN/A
7:25 pm64 °FSunny.10 mph46%30.01 "Hg10 mi
6:55 pm64 °FSunny.13 mph49%30.01 "Hg10 mi
6:25 pm66 °FPassing clouds.10 mph46%30.01 "HgN/A
5:55 pm66 °FPassing clouds.12 mph43%30.01 "HgN/A
5:25 pm68 °FPassing clouds.9 mph43%30.01 "HgN/A
4:55 pm66 °FPassing clouds.10 mph43%30.01 "HgN/A
4:25 pm66 °FPassing clouds.10 mph40%30.04 "HgN/A
3:55 pm66 °FPassing clouds.13 mph35%30.04 "HgN/A
3:25 pm66 °FPassing clouds.16 mph32%30.04 "HgN/A
Weather by CustomWeather, © 2019

See weather overview